| time (UTC) | temp F | wind direction | speed MPH | gust MPH | rain 1hr in | rain 24hr in | rain mn in | humidity % | barometer mb |
| 20260510190041 | 43 | 139 | 2.0 | 7.0 | 0.00 | 0.00 | 0.00 | 94 | 1031.3 |
| 20260510184539 | 43 | 131 | 2.0 | 5.0 | 0.00 | 0.00 | 0.00 | 94 | 1031.2 |
| 20260510183037 | 43 | 122 | 2.0 | 5.0 | 0.00 | 0.00 | 0.00 | 94 | 1031.2 |
| 20260510181530 | 43 | 126 | 2.0 | 7.0 | 0.00 | 0.00 | 0.00 | 94 | 1031.1 |
| 20260510180035 | 43 | 123 | 4.0 | 9.0 | 0.00 | 0.00 | 0.00 | 93 | 1030.9 |
| 20260510174535 | 43 | 124 | 3.0 | 7.0 | 0.00 | 0.00 | 0.00 | 93 | 1030.9 |
| 20260510173039 | 44 | 116 | 3.0 | 8.0 | 0.00 | 0.00 | 0.00 | 93 | 1030.8 |
| 20260510171533 | 44 | 129 | 4.0 | 8.0 | 0.00 | 0.00 | 0.00 | 93 | 1030.9 |
| 20260510170037 | 43 | 115 | 3.0 | 8.0 | 0.00 | 0.00 | 0.00 | 93 | 1030.9 |
| 20260510164539 | 43 | 117 | 3.0 | 7.0 | 0.00 | 0.00 | 0.00 | 93 | 1030.9 |
| 20260510163035 | 43 | 121 | 2.0 | 8.0 | 0.00 | 0.00 | 0.00 | 93 | 1030.9 |
| 20260510161536 | 43 | 128 | 2.0 | 6.0 | 0.00 | 0.00 | 0.00 | 93 | 1031.1 |
| 20260510160036 | 43 | 123 | 2.0 | 6.0 | 0.00 | 0.00 | 0.00 | 93 | 1031.3 |
| 20260510154539 | 43 | 136 | 3.0 | 5.0 | 0.00 | 0.00 | 0.00 | 93 | 1031.3 |
| 20260510153036 | 43 | 138 | 2.0 | 5.0 | 0.00 | 0.00 | 0.00 | 93 | 1031.2 |
| 20260510151538 | 43 | 136 | 3.0 | 7.0 | 0.00 | 0.00 | 0.00 | 93 | 1031.0 |
| 20260510150042 | 43 | 138 | 3.0 | 5.0 | 0.00 | 0.00 | 0.00 | 93 | 1031.2 |
| 20260510144556 | 43 | 126 | 2.0 | 7.0 | 0.00 | 0.00 | 0.00 | 93 | 1031.2 |
| 20260510143032 | 43 | 117 | 3.0 | 7.0 | 0.00 | 0.00 | 0.00 | 92 | 1031.1 |
| 20260510141531 | 43 | 124 | 2.0 | 7.0 | 0.00 | 0.00 | 0.00 | 92 | 1031.3 |
| 20260510140038 | 43 | 121 | 3.0 | 7.0 | 0.00 | 0.00 | 0.00 | 92 | 1031.4 |
| 20260510134550 | 44 | 118 | 3.0 | 6.0 | 0.00 | 0.00 | 0.00 | 92 | 1031.3 |
| 20260510133033 | 44 | 121 | 2.0 | 7.0 | 0.00 | 0.00 | 0.00 | 92 | 1031.5 |
| 20260510131530 | 44 | 124 | 2.0 | 6.0 | 0.00 | 0.00 | 0.00 | 92 | 1031.6 |
| 20260510130034 | 44 | 144 | 3.0 | 5.0 | 0.00 | 0.00 | 0.00 | 92 | 1031.6 |
| 20260510124542 | 44 | 130 | 3.0 | 7.0 | 0.00 | 0.00 | 0.00 | 92 | 1031.8 |
| 20260510123036 | 44 | 124 | 2.0 | 6.0 | 0.00 | 0.00 | 0.00 | 92 | 1031.8 |
| 20260510121533 | 44 | 125 | 2.0 | 7.0 | 0.00 | 0.00 | 0.00 | 91 | 1031.8 |
| 20260510120040 | 44 | 142 | 3.0 | 7.0 | 0.00 | 0.00 | 0.00 | 91 | 1031.8 |
| 20260510114532 | 45 | 128 | 2.0 | 8.0 | 0.00 | 0.00 | 0.00 | 91 | 1031.7 |
| 20260510113034 | 45 | 140 | 3.0 | 8.0 | 0.00 | 0.00 | 0.00 | 91 | 1031.6 |
| 20260510111551 | 45 | 148 | 3.0 | 7.0 | 0.00 | 0.00 | 0.00 | 90 | 1031.7 |
| 20260510110034 | 45 | 144 | 3.0 | 7.0 | 0.00 | 0.00 | 0.00 | 90 | 1031.5 |
| 20260510104540 | 45 | 110 | 2.0 | 7.0 | 0.00 | 0.00 | 0.00 | 90 | 1031.5 |
| 20260510103038 | 46 | 130 | 2.0 | 8.0 | 0.00 | 0.00 | 0.00 | 89 | 1031.6 |
| 20260510101539 | 46 | 112 | 3.0 | 8.0 | 0.00 | 0.00 | 0.00 | 89 | 1031.4 |
| 20260510100035 | 46 | 143 | 3.0 | 9.0 | 0.00 | 0.00 | 0.00 | 89 | 1031.4 |
| 20260510094539 | 47 | 153 | 3.0 | 10.0 | 0.00 | 0.00 | 0.00 | 88 | 1031.4 |
| 20260510093036 | 47 | 146 | 4.0 | 8.0 | 0.00 | 0.00 | 0.00 | 88 | 1031.1 |
| 20260510091535 | 47 | 142 | 3.0 | 8.0 | 0.00 | 0.00 | 0.00 | 87 | 1031.1 |
| 20260510090036 | 48 | 146 | 3.0 | 8.0 | 0.00 | 0.00 | 0.00 | 86 | 1030.7 |
| 20260510084536 | 48 | 156 | 4.0 | 9.0 | 0.00 | 0.00 | 0.00 | 86 | 1030.7 |
| 20260510083037 | 49 | 145 | 6.0 | 10.0 | 0.00 | 0.00 | 0.00 | 85 | 1030.6 |
| 20260510081530 | 49 | 155 | 5.0 | 9.0 | 0.00 | 0.00 | 0.00 | 84 | 1030.4 |
| 20260510080036 | 50 | 149 | 5.0 | 10.0 | 0.00 | 0.00 | 0.00 | 83 | 1030.2 |
| 20260510074541 | 51 | 162 | 5.0 | 11.0 | 0.00 | 0.00 | 0.00 | 81 | 1030.1 |
| 20260510073037 | 52 | 163 | 6.0 | 10.0 | 0.00 | 0.00 | 0.00 | 80 | 1030.2 |
| 20260510071536 | 53 | 137 | 5.0 | 11.0 | 0.00 | 0.00 | 0.00 | 78 | 1030.2 |
| 20260510070034 | 54 | 153 | 7.0 | 12.0 | 0.00 | 0.00 | 0.00 | 76 | 1030.0 |
| 20260510064538 | 55 | 167 | 5.0 | 11.0 | 0.00 | 0.00 | 0.00 | 75 | 1030.1 |
| 20260510063037 | 56 | 159 | 5.0 | 11.0 | 0.00 | 0.00 | 0.00 | 73 | 1029.9 |
| 20260510061538 | 56 | 134 | 5.0 | 14.0 | 0.00 | 0.00 | 0.00 | 72 | 1029.9 |
| 20260510060046 | 57 | 147 | 7.0 | 15.0 | 0.00 | 0.00 | 0.00 | 72 | 1029.8 |
| 20260510054536 | 57 | 128 | 6.0 | 12.0 | 0.00 | 0.00 | 0.00 | 72 | 1029.7 |
| 20260510053035 | 58 | 171 | 6.0 | 12.0 | 0.00 | 0.00 | 0.00 | 71 | 1029.5 |
| 20260510051543 | 58 | 170 | 7.0 | 13.0 | 0.00 | 0.00 | 0.00 | 71 | 1029.5 |
| 20260510050036 | 58 | 151 | 6.0 | 12.0 | 0.00 | 0.00 | 0.00 | 72 | 1029.5 |
| 20260510044538 | 58 | 161 | 6.0 | 11.0 | 0.00 | 0.00 | 0.00 | 71 | 1029.4 |
| 20260510043047 | 59 | 98 | 7.0 | 12.0 | 0.00 | 0.00 | 0.00 | 72 | 1029.4 |
| 20260510041535 | 58 | 134 | 5.0 | 12.0 | 0.00 | 0.00 | 0.00 | 72 | 1029.4 |
| 20260510040036 | 58 | 153 | 5.0 | 11.0 | 0.00 | 0.00 | 0.00 | 73 | 1029.5 |
| 20260510034539 | 58 | 152 | 7.0 | 11.0 | 0.00 | 0.00 | 0.00 | 73 | 1029.5 |
| 20260510033030 | 58 | 104 | 5.0 | 11.0 | 0.00 | 0.00 | 0.00 | 74 | 1029.5 |
| 20260510031604 | 57 | 176 | 7.0 | 13.0 | 0.00 | 0.00 | 0.00 | 74 | 1029.6 |
| 20260510030038 | 57 | 155 | 4.0 | 14.0 | 0.00 | 0.00 | 0.00 | 75 | 1029.8 |
| 20260510024537 | 57 | 133 | 7.0 | 13.0 | 0.00 | 0.00 | 0.00 | 76 | 1029.9 |
| 20260510023045 | 56 | 150 | 6.0 | 13.0 | 0.00 | 0.00 | 0.00 | 77 | 1029.9 |
| 20260510021542 | 56 | 117 | 5.0 | 12.0 | 0.00 | 0.00 | 0.00 | 79 | 1030.1 |
| 20260510020035 | 55 | 156 | 7.0 | 14.0 | 0.00 | 0.00 | 0.00 | 79 | 1030.3 |
| 20260510014535 | 55 | 139 | 6.0 | 14.0 | 0.00 | 0.00 | 0.00 | 81 | 1030.4 |
| 20260510013037 | 54 | 148 | 9.0 | 13.0 | 0.00 | 0.00 | 0.00 | 82 | 1030.6 |
| 20260510012521 | 54 | 121 | 7.0 | 14.0 | 0.00 | 0.00 | 0.00 | 83 | 1030.6 |
| 20260510012019 | 54 | 118 | 8.0 | 14.0 | 0.00 | 0.00 | 0.00 | 84 | 1030.7 |
| 20260510011608 | 53 | 97 | 7.0 | 14.0 | 0.00 | 0.00 | 0.00 | 85 | 1030.7 |
| 20260510011020 | 53 | 113 | 7.0 | 14.0 | 0.00 | 0.00 | 0.00 | 86 | 1030.7 |
| 20260510010518 | 53 | 121 | 9.0 | 15.0 | 0.00 | 0.00 | 0.00 | 86 | 1030.7 |
| 20260510010042 | 53 | 132 | 8.0 | 16.0 | 0.00 | 0.00 | 0.00 | 87 | 1030.7 |
| 20260510005517 | 52 | 175 | 8.0 | 16.0 | 0.00 | 0.00 | 0.00 | 88 | 1030.8 |
| 20260510005017 | 52 | 127 | 9.0 | 16.0 | 0.00 | 0.00 | 0.00 | 89 | 1030.7 |
| 20260510004536 | 52 | 166 | 8.0 | 19.0 | 0.00 | 0.00 | 0.00 | 89 | 1030.7 |
| 20260510004019 | 52 | 155 | 10.0 | 19.0 | 0.00 | 0.00 | 0.00 | 89 | 1030.7 |
| 20260510003519 | 52 | 152 | 11.0 | 19.0 | 0.00 | 0.00 | 0.00 | 89 | 1030.7 |
| 20260510003031 | 52 | 134 | 9.0 | 17.0 | 0.00 | 0.00 | 0.00 | 89 | 1030.7 |
| 20260510002519 | 52 | 157 | 9.0 | 19.0 | 0.00 | 0.00 | 0.00 | 90 | 1030.7 |
| 20260510002022 | 52 | 156 | 11.0 | 19.0 | 0.00 | 0.00 | 0.00 | 91 | 1030.7 |
| 20260510001533 | 52 | 162 | 7.0 | 15.0 | 0.00 | 0.00 | 0.00 | 92 | 1030.6 |
| 20260510001020 | 51 | 119 | 9.0 | 15.0 | 0.00 | 0.00 | 0.00 | 92 | 1030.6 |
| 20260510000518 | 51 | 157 | 8.0 | 15.0 | 0.00 | 0.00 | 0.00 | 92 | 1030.6 |
| 20260510000035 | 51 | 107 | 8.0 | 16.0 | 0.00 | 0.00 | 0.00 | 92 | 1030.7 |
| 20260509235518 | 50 | 120 | 8.0 | 16.0 | 0.00 | 0.00 | 0.00 | 93 | 1030.7 |
| 20260509235016 | 50 | 143 | 10.0 | 18.0 | 0.00 | 0.00 | 0.00 | 93 | 1030.7 |
| 20260509234536 | 50 | 154 | 9.0 | 18.0 | 0.00 | 0.00 | 0.00 | 93 | 1030.7 |
| 20260509234017 | 50 | 137 | 9.0 | 17.0 | 0.00 | 0.00 | 0.00 | 94 | 1030.7 |
| 20260509233516 | 50 | 117 | 9.0 | 15.0 | 0.00 | 0.00 | 0.00 | 94 | 1030.7 |
| 20260509233035 | 50 | 149 | 9.0 | 19.0 | 0.00 | 0.00 | 0.00 | 94 | 1030.7 |
| 20260509232521 | 50 | 138 | 9.0 | 19.0 | 0.00 | 0.00 | 0.00 | 94 | 1030.6 |
| 20260509232019 | 49 | 125 | 8.0 | 14.0 | 0.00 | 0.00 | 0.00 | 94 | 1030.6 |
| 20260509231537 | 49 | 113 | 7.0 | 16.0 | 0.00 | 0.00 | 0.00 | 94 | 1030.6 |
| 20260509231020 | 49 | 144 | 8.0 | 16.0 | 0.00 | 0.00 | 0.00 | 94 | 1030.5 |
| 20260509230519 | 49 | 132 | 7.0 | 14.0 | 0.00 | 0.00 | 0.00 | 94 | 1030.5 |
| 20260509230037 | 49 | 124 | 5.0 | 17.0 | 0.00 | 0.00 | 0.00 | 94 | 1030.5 |
| 20260509225520 | 49 | 122 | 8.0 | 17.0 | 0.00 | 0.00 | 0.00 | 94 | 1030.4 |
| 20260509225019 | 49 | 153 | 8.0 | 20.0 | 0.00 | 0.00 | 0.00 | 94 | 1030.4 |
| 20260509224535 | 49 | 151 | 9.0 | 20.0 | 0.00 | 0.00 | 0.00 | 94 | 1030.4 |
| 20260509224019 | 49 | 122 | 10.0 | 19.0 | 0.00 | 0.00 | 0.00 | 94 | 1030.2 |
| 20260509223519 | 49 | 130 | 9.0 | 22.0 | 0.00 | 0.00 | 0.00 | 94 | 1030.2 |
| 20260509223033 | 49 | 146 | 10.0 | 22.0 | 0.00 | 0.00 | 0.00 | 94 | 1030.2 |
| 20260509222518 | 49 | 140 | 7.0 | 19.0 | 0.00 | 0.00 | 0.00 | 94 | 1030.3 |
| 20260509222019 | 49 | 157 | 12.0 | 20.0 | 0.00 | 0.00 | 0.00 | 94 | 1030.1 |
| 20260509221535 | 49 | 145 | 8.0 | 20.0 | 0.00 | 0.00 | 0.00 | 94 | 1030.1 |
| 20260509221019 | 49 | 163 | 6.0 | 15.0 | 0.00 | 0.00 | 0.00 | 94 | 1030.0 |
| 20260509220518 | 49 | 148 | 6.0 | 14.0 | 0.00 | 0.00 | 0.00 | 94 | 1030.1 |
| 20260509220037 | 49 | 134 | 8.0 | 14.0 | 0.00 | 0.00 | 0.00 | 94 | 1029.9 |
| 20260509215523 | 48 | 144 | 9.0 | 16.0 | 0.00 | 0.00 | 0.00 | 94 | 1029.9 |
| 20260509215020 | 48 | 157 | 9.0 | 17.0 | 0.00 | 0.00 | 0.00 | 94 | 1029.8 |
| 20260509214537 | 48 | 154 | 8.0 | 17.0 | 0.00 | 0.00 | 0.00 | 94 | 1029.8 |
| 20260509214019 | 48 | 129 | 8.0 | 17.0 | 0.00 | 0.00 | 0.00 | 94 | 1029.7 |
| 20260509213520 | 48 | 133 | 9.0 | 17.0 | 0.00 | 0.00 | 0.00 | 94 | 1029.7 |
| 20260509213042 | 48 | 159 | 7.0 | 18.0 | 0.00 | 0.00 | 0.00 | 94 | 1029.7 |
| 20260509212519 | 48 | 134 | 9.0 | 20.0 | 0.00 | 0.00 | 0.00 | 94 | 1029.6 |
| 20260509212019 | 48 | 153 | 9.0 | 20.0 | 0.00 | 0.00 | 0.00 | 94 | 1029.5 |
| 20260509211606 | 48 | 152 | 8.0 | 15.0 | 0.00 | 0.00 | 0.00 | 94 | 1029.5 |
| 20260509211019 | 48 | 136 | 8.0 | 15.0 | 0.00 | 0.00 | 0.00 | 94 | 1029.4 |
| 20260509210519 | 48 | 110 | 8.0 | 15.0 | 0.00 | 0.00 | 0.00 | 94 | 1029.3 |
| 20260509210037 | 48 | 157 | 7.0 | 15.0 | 0.00 | 0.00 | 0.00 | 94 | 1029.3 |
| 20260509205520 | 48 | 160 | 5.0 | 17.0 | 0.00 | 0.00 | 0.00 | 94 | 1029.2 |
| 20260509205019 | 48 | 120 | 6.0 | 17.0 | 0.00 | 0.00 | 0.00 | 94 | 1029.1 |
| 20260509204540 | 48 | 126 | 8.0 | 16.0 | 0.00 | 0.00 | 0.00 | 94 | 1029.2 |
| 20260509204020 | 48 | 154 | 8.0 | 14.0 | 0.00 | 0.00 | 0.00 | 94 | 1029.2 |
| 20260509203516 | 48 | 121 | 6.0 | 14.0 | 0.00 | 0.00 | 0.00 | 94 | 1029.1 |
| 20260509203041 | 48 | 149 | 5.0 | 15.0 | 0.00 | 0.00 | 0.00 | 94 | 1029.1 |
| 20260509202519 | 48 | 145 | 8.0 | 15.0 | 0.00 | 0.00 | 0.00 | 94 | 1029.1 |
| 20260509202022 | 48 | 111 | 8.0 | 14.0 | 0.00 | 0.00 | 0.00 | 94 | 1029.0 |
| 20260509201535 | 48 | 143 | 8.0 | 17.0 | 0.00 | 0.00 | 0.00 | 94 | 1028.8 |
| 20260509201021 | 48 | 161 | 7.0 | 17.0 | 0.00 | 0.00 | 0.00 | 94 | 1028.8 |
| 20260509200520 | 49 | 129 | 9.0 | 16.0 | 0.00 | 0.00 | 0.00 | 94 | 1028.8 |
| 20260509200036 | 49 | 130 | 8.0 | 15.0 | 0.00 | 0.00 | 0.00 | 94 | 1028.8 |
| 20260509195521 | 49 | 144 | 4.0 | 15.0 | 0.00 | 0.00 | 0.00 | 94 | 1028.7 |
| 20260509195018 | 49 | 130 | 6.0 | 19.0 | 0.00 | 0.00 | 0.00 | 94 | 1028.6 |
| 20260509194538 | 49 | 161 | 8.0 | 19.0 | 0.00 | 0.00 | 0.00 | 94 | 1028.6 |
| 20260509194019 | 49 | 157 | 11.0 | 19.0 | 0.00 | 0.00 | 0.00 | 94 | 1028.5 |
| 20260509193519 | 49 | 125 | 5.0 | 15.0 | 0.00 | 0.00 | 0.00 | 94 | 1028.5 |
| 20260509193035 | 49 | 149 | 7.0 | 15.0 | 0.00 | 0.00 | 0.00 | 94 | 1028.4 |
| 20260509192519 | 49 | 153 | 7.0 | 17.0 | 0.00 | 0.00 | 0.00 | 94 | 1028.2 |
| 20260509192019 | 49 | 132 | 8.0 | 20.0 | 0.00 | 0.00 | 0.00 | 94 | 1028.2 |
| 20260509191535 | 49 | 126 | 8.0 | 20.0 | 0.00 | 0.00 | 0.00 | 94 | 1028.1 |
| 20260509191020 | 49 | 115 | 8.0 | 17.0 | 0.00 | 0.00 | 0.00 | 94 | 1028.0 |